Погода Тарту

Погода Тарту : погода сейчас, прогноз погоды и архив. Всё, что Вы хотите узнать о погоде Тарту!

Поиск расширенной информации на нашем сайте:

Другие новости

Новости СМИ2

Главная страница сайта

Новости сайта

03.07.2017

Напоминаем, что на нашем специализированном сайте Метеоцентр.Азия вы можете получить высокодетализированные автоматические прогнозы погоды по пунктам России, СНГ и мира в авиационном формате (включающие направление и скорость ветра, видимость, явления погоды, количество и форму облачности, нижнюю и верхнюю границу облачности).


Погода Тарту - сегодня

Время (UTC), дата Ветер
(°,м/с) 
Видим.   Явления Облачность Т
(°С)
Тd
(°С)
f(%) Тe
(°С)
Pmin
(гПа)
dP
(гПа)
Po
(мм)
O2
(г/м3)
Тmin Tmax R s Состояние
почвы
00 19.06.18 тихо ()   20000 м    4/0 верхняя 
[Ci fib]
+12.1 +9.5 84 +13  1014.2  -0.6  754  289  +12  +25.8       
03 19.06.18 200 (Ю) 20000 м    3/0 верхняя 
[Ci fib]
+12.3 +10.1 86 +14  1013.5  -0.7  754  289  +10.8  +19.7       
06 19.06.18 230 (ЮЗ) 4{09}  20000 м    9/8 400 м верхняя 
[Sc|Ci fib]
+16.6 +10.4 67 +19  1012.2  -1.3  753  284  +10.8  +18.2       
09 19.06.18 200 (Ю) 3{09}  20000 м    10/9 1020 м 
[Sc]
+18.7 +10.1 57 +20  1009.9  -2.3  751  281  +10.8  +19.3       
12 19.06.18 230 (ЮЗ) 3{10}  6000 м  ливневой дождь  10/10 900 м кучево-дожд. 
[Cb cap]
+15 +14.5 97 +23  1008  -1.9  750  283  +10.8  +19.3     
15 19.06.18 250 (З) 4{15}  20000 м  слаб. ливневой дождь  9/8 800 м кучево-дожд., средняя 
[Cb cap|Ac trans]
+14.3 +11.4 83 +17  1007.4  -0.6  749  285  +12.3  +19.3     
21 19.06.18 250 (З) 4{11}  20000 м    ясно 
+13.7 +8.9 73 +13  1009.1  1.2  751  286  +13.7  +18.7       
00 20.06.18 240 (ЮЗ) 20000 м    ясно 
+12 +9.2 83 +12  1009.4  0.3  751  288  +11.7  +16.7       
03 20.06.18 230 (ЮЗ) 20000 м    ясно 
+12.5 +10.2 86 +14  1009.5  -0.1  751  287  +11.6  +16.7       
06 20.06.18 260 (З) 4-8{10}  20000 м    5/5 750 м 
[Cu med, cong]
+15.3 +7.9 61 +15  1010.2  0.7  751  285  +11.6  +16.3       
09 20.06.18 260 (З) 6-12{12}  20000 м    8/8 1080 м 
[Cu med, cong]
+16.5 +7.2 54 +16  1011.8  1.6  753  285  +11.6  +17.5       
12 20.06.18 250 (З) 6-12{13}  20000 м    4/4 1300 м 
[Cu med, cong]
+17.9 +5.5 44 +18  1012.2  0.4  753  284  +11.6  +18.5       
15 20.06.18 260 (З) 6-12{13}  20000 м    5/0 средняя 
[Ac trans]
+17.1 +1.7 35 +17  1012.2  753  285  +12.5  +18.7       
18 20.06.18 250 (З) 4{13}  20000 м    9/0 средняя 
[Ac trans]
+15.4 +2.2 41 +15  1011.8  -0.4  753  287  +15.2  +18.7       
21 20.06.18 230 (ЮЗ) 2{08}  20000 м  слаб. дождь  10/9 1500 м 
[Sc]
+13.5 +6.4 62 +14  1011  -0.8  752  288  +13.5  +18.7       
00 21.06.18 110 (В) 9000 м  дождь  10/10 540 м 
[Frnb|Ns]
+11.3 +10.9 97 +14  1008.7  -2.3  750  288  +11.1  +18.7     
03 21.06.18 210 (ЮЗ) 8000 м  слаб. морось{дождь}  10/10 120 м 
[St]
+13.9 +13.9 100 +21  1007.5  -1.2  749  284  +11.1  +17.1     
06 21.06.18 200 (Ю) 20000 м  в посл. час ливневой дождь  10/10 240 м кучево-дожд. 
[Cb calv]
+16.1 +14.9 93 +26  1007.4  0.1  749  282  +11.1  +16.4       
09 21.06.18 220 (ЮЗ) 20000 м  слаб. ливневой дождь  10/10 240 м 
[Frnb|Ns]
+16.4 +16.1 98 +28  1006.5  -0.9  749  281  +11.1  +16.4     
12 21.06.18 260 (З) 2{08}  20000 м  {ливн. осадки}  10/8 750 м кучево-дожд., средняя 
[Cb cap|Ac As]
+19.8 +15.5 76 +31  1005.1  -1.4  748  278  +11.3  +20.7       
15 21.06.18 100 (В) 20000 м  {ливн. осадки}  9/3 900 м кучево-дожд., средняя, верхняя 
[Cb calv|Ac trans|Cs]
+21.6 +15.6 69 +31  1002.8  -2.3  746  275  +13.9  +22.2       
18 21.06.18 140 (ЮВ) 2200 м  гроза, ливневой дождь  10/10 1500 м кучево-дожд. 
[Cb cap]
+18.3 +18.3 100 +34  1001.3  -1.5  745  277  +15.5  +22.2     
21 21.06.18 170 (Ю) 14000 м  ливневой дождь  10/10 1500 м кучево-дожд. 
[Cb cap]
+17.8 +16.4 92 +30  997.7  -3.6  742  277  +16.3  +22.2     
00 22.06.18 250 (З) 3{09}  20000 м  в посл. час ливневой дождь  10/10 150 м 
[Frnb]
+14.3 +14.3 100 +22  997.4  -0.3  742  281  +14.3  +22.2     
03 22.06.18 250 (З) 2{09}  20000 м    8/4 330 м средняя, верхняя 
[Cu Sc|Ac trans|Ci fib]
+12.2 +10.9 92 +16  999.1  1.7  743  285  +12.1  +21.8       
Время (UTC), дата Ветер
(°,м/с) 
Видим.   Явления Облачность Т
(°С)
Тd
(°С)
f(%) Тe
(°С)
Pmin
(гПа)
dP
(гПа)
Po
(мм)
O2
(г/м3)
Тmin Tmax R s Состояние
почвы

Для получения пояснительной информации подведите курсор к названию столбца.

ПОГОДА Тарту - архив

Всё, что Вы хотите узнать о погоде Тарту - удобно и подробно!

Выберите нужную дату (начиная с 1 января 2015* года) и нажмите кнопку "Найти".
Будут отображены архивные сводки погоды по пункту Тарту, начиная с указанной даты.


Отображать данные в формате CSV (для использования в таблицах Excel)


Внимание! Наш архив погоды предназначен исключительно для личного некоммерческого использования в познавательных целях. Если Вам необходимы официальные справки о состоянии погоды (для производственных, юридических, коммерческих и т.п. целей), обращайтесь в органы Росгидромета.

*Примечание: данная дата относится к архиву по метеостанциям СССР (Россия, СНГ, Балтия).
Архив по метеостанциям Зарубежной Европы и Азии (кроме Китая) хранится 10 дней, по другим регионам земного шара (Китай, Африка, Америка, Австралия, Океания) - 1 день.

Тарту - район местоположения метеостанции


Название, широта, долгота, высота метеостанции:
Тарту 58.3°ш. 26.7°д. 68 м над ур. моря [Эстония]

Дополнительная информация

В oтличие oт бoльшинства пoгoдных сайтoв мы публикуем пoдрoбную метеoинфoрмацию в детальнoм прoфессиoнальнoм фoрмате.

Характеристики температуры и влажнoсти вoздуха измеряются на высoте 2 м в тени вдали oт зданий и деревьев.
Скoрoсть ветра измеряется на высoте 10 м (на урoвне рoста челoвека скoрoсть ветра ниже в 1.5-2 раза). Если метеoстанция нахoдится в гoрoде или в лесу, тo скoрoсть ветра занижена на 2-4 м/с пo сравнению с oткрытым местoм. Скoрoсть ветра над акватoриями крупных рек и oзёр, а также на вершинах хoлмoв на 2-5 м/с выше, чем в oбычных услoвиях.
Атмoсфернoе давление в разных тoчках местнoсти мoжет значительнo oтличаться oт давления на метеoстанции, в зависимoсти oт услoвий рельефа (при пoдъёме на 10 м давление пoнижается примернo на 1 мм рт.ст.).